This is the latest recevied weather packets stored in our database for station/object KD6VEX-1. If no packets are shown the sender has not sent any weather packets the latest 10 day(s).
| Time | Temp. | Humidity | Pressure | Rain* | Wind** | Luminosity | Snow |
|---|---|---|---|---|---|---|---|
| 1778004042 | 19.44° C | 53% | 1015 hPa | 0 mm | - | - | - |
| 1778003742 | 18.89° C | 53% | 1015 hPa | 0 mm | - | - | - |
| 1778003442 | 18.89° C | 53% | 1015 hPa | 0 mm | - | - | - |
| 1778003142 | 18.89° C | 53% | 1015 hPa | 0 mm | - | - | - |
| 1778002843 | 18.33° C | 53% | 1015 hPa | 0 mm | - | - | - |
| 1778002542 | 18.33° C | 53% | 1015 hPa | 0 mm | - | - | - |
| 1778002242 | 18.33° C | 54% | 1015 hPa | 0 mm | - | - | - |
| 1778001942 | 18.33° C | 57% | 1015 hPa | 0 mm | - | - | - |
| 1778001642 | 17.78° C | 57% | 1015 hPa | 0 mm | - | - | - |
| 1778001043 | 17.78° C | 57% | 1015.1 hPa | 0 mm | - | - | - |
| 1778000442 | 17.78° C | 58% | 1015.1 hPa | 0 mm | - | - | - |
| 1778000142 | 17.78° C | 58% | 1015.1 hPa | 0 mm | - | - | - |
| 1777999842 | 17.22° C | 58% | 1015.2 hPa | 0 mm | - | - | - |
| 1777999542 | 17.22° C | 61% | 1015.2 hPa | 0 mm | - | - | - |
| 1777998942 | 16.67° C | 62% | 1015.2 hPa | 0 mm | - | - | - |
| 1777998642 | 16.11° C | 62% | 1015.2 hPa | 0 mm | - | - | - |
| 1777998342 | 16.11° C | 62% | 1015.2 hPa | 0 mm | - | - | - |
| 1777998042 | 16.11° C | 62% | 1015.1 hPa | 0 mm | - | - | - |
| 1777997742 | 16.11° C | 64% | 1015 hPa | 0 mm | - | - | - |
| 1777997442 | 15.56° C | 65% | 1015.1 hPa | 0 mm | - | - | - |
| 1777997142 | 15.56° C | 67% | 1015.1 hPa | 0 mm | - | - | - |
| 1777996843 | 15° C | 68% | 1015.1 hPa | 0 mm | - | - | - |
| 1777996542 | 15° C | 71% | 1015.1 hPa | 0 mm | - | - | - |
| 1777996242 | 14.44° C | 77% | 1015.2 hPa | 0 mm | - | - | - |
| 1777995942 | 13.89° C | 75% | 1015.1 hPa | 0 mm | - | - | - |
* Rain latest hour (hover to see other rain measurements)
** Current wind speed in m/s (hover to see current wind gust speed)